This is the latest recevied weather packets stored in our database for station/object DG7FDL-7. If no packets are shown the sender has not sent any weather packets the latest 10 day(s).
| Time | Temp. | Humidity | Pressure | Rain* | Wind** | Luminosity | Snow |
|---|---|---|---|---|---|---|---|
| 1778182696 | 181.11° C | 100% | - | - | - | - | - |
| 1778181798 | 23.33° C | 45% | 1018.2 hPa | - | - | - | - |
| 1778180892 | 23.33° C | 44% | 1018 hPa | - | - | - | - |
| 1778179998 | 23.33° C | 45% | 1017.9 hPa | - | - | - | - |
| 1778179049 | 23.33° C | 45% | 1017.8 hPa | - | - | - | - |
| 1778178149 | 23.33° C | 45% | 1017.7 hPa | - | - | - | - |
| 1778177249 | 23.33° C | 45% | 1017.5 hPa | - | - | - | - |
| 1778176349 | 23.33° C | 45% | 1017.5 hPa | - | - | - | - |
| 1778170050 | 22.22° C | 44% | 1016.9 hPa | - | - | - | - |
| 1778167349 | 22.78° C | 44% | 1016.6 hPa | - | - | - | - |
| 1778162851 | 22.78° C | 46% | 1016.2 hPa | - | - | - | - |
| 1778161984 | 22.78° C | 45% | 1016.3 hPa | - | - | - | - |
| 1778161078 | 22.22° C | 46% | 1016.2 hPa | - | - | - | - |
| 1778160182 | 22.22° C | 46% | 1016.2 hPa | - | - | - | - |
| 1778159691 | 21.67° C | 46% | 1016.1 hPa | - | - | - | - |
| 1778158778 | 22.78° C | 44% | 1016 hPa | - | - | - | - |
| 1778157891 | 21.67° C | 46% | 1015.8 hPa | - | - | - | - |
| 1778156977 | 21.11° C | 46% | 1015.7 hPa | - | - | - | - |
| 1778156089 | 21.11° C | 47% | 1015.5 hPa | - | - | - | - |
| 1778155172 | 21.11° C | 47% | 1015.3 hPa | - | - | - | - |
| 1778154285 | 20.56° C | 47% | 1015.3 hPa | - | - | - | - |
| 1778153369 | 20.56° C | 48% | 1015.2 hPa | - | - | - | - |
| 1778152485 | 20.56° C | 48% | 1015.1 hPa | - | - | - | - |
| 1778151571 | 20.56° C | 46% | 1015 hPa | - | - | - | - |
| 1778150681 | 20.56° C | 46% | 1015 hPa | - | - | - | - |
* Rain since midnight (hover to see other rain measurements)
** Current wind speed in m/s (hover to see current wind gust speed)